This is the latest recevied weather packets stored in our database for station/object YO2KCB-10. If no packets are shown the sender has not sent any weather packets the latest 1 day(s).
| Time | Temp. | Humidity | Pressure | Rain* | Wind** | Luminosity | Snow |
|---|---|---|---|---|---|---|---|
| 1777771919 | 10° C | 33% | 1019.5 hPa | - | - | - | - |
| 1777770718 | 10.56° C | 33% | 1019.4 hPa | - | - | - | - |
| 1777769518 | 10.56° C | 33% | 1019.4 hPa | - | - | - | - |
| 1777768318 | 11.11° C | 33% | 1019.4 hPa | - | - | - | - |
| 1777767118 | 11.11° C | 33% | 1019.3 hPa | - | - | - | - |
| 1777765918 | 11.67° C | 33% | 1019.2 hPa | - | - | - | - |
| 1777764718 | 11.67° C | 32% | 1019.2 hPa | - | - | - | - |
| 1777763517 | 12.22° C | 32% | 1019.3 hPa | - | - | - | - |
| 1777762317 | 12.22° C | 33% | 1019.3 hPa | - | - | - | - |
| 1777761117 | 12.78° C | 33% | 1019.4 hPa | - | - | - | - |
| 1777759917 | 12.78° C | 31% | 1019.4 hPa | - | - | - | - |
| 1777758717 | 13.33° C | 32% | 1019.6 hPa | - | - | - | - |
| 1777756316 | 13.89° C | 29% | 1019.4 hPa | - | - | - | - |
| 1777755116 | 14.44° C | 29% | 1019.3 hPa | - | - | - | - |
| 1777753916 | 14.44° C | 28% | 1019.5 hPa | - | - | - | - |
| 1777752716 | 15° C | 28% | 1019.4 hPa | - | - | - | - |
| 1777751516 | 15.56° C | 28% | 1019.3 hPa | - | - | - | - |
| 1777750316 | 15.56° C | 28% | 1019.3 hPa | - | - | - | - |
| 1777749115 | 16.11° C | 28% | 1019.2 hPa | - | - | - | - |
| 1777747915 | 16.67° C | 28% | 1019.3 hPa | - | - | - | - |
| 1777746715 | 16.67° C | 28% | 1019 hPa | - | - | - | - |
* Rain since midnight (hover to see other rain measurements)
** Current wind speed in m/s (hover to see current wind gust speed)